Terminal Aerodrome Forecast
Issued by NWS Sterling, VA

Current Version | Previous Version | Text Only | Print | Product List | Glossary On
Versions: 1 2 3 4 5 6 7 8 9 10 11 12 13 14 15 16 17 18 19 20 21
000
FTUS41 KLWX 301700
TAFBWI
TAF
KBWI 301734Z 3018/3124 16008KT P6SM BKN035
     FM311000 19006KT 5SM BR BKN090
     FM311300 20007KT P6SM BKN090=

USA.gov is the U.S. government's official web portal to all federal, state and local government web resources and services.